• In India
  • List of Countries
  • For 7 days
  • Water Temperature
  • Satellite Maps
  • Weather Map
  • Weather Widgets
  • user-avatar
    Login

    Hourly Weather Korbielow

    Today, 23 September, Sunday

    Time Temperature Precipitation Wind Pressure Humidity
    00:00 +9°C° 0 mm 2 mps 707 mmHg 71%
    01:00 +9°C° 0 mm 3 mps 707 mmHg 70%
    02:00 +9°C° 0.1 mm 3 mps 706 mmHg 73%
    03:00 +9°C° 0.1 mm 2 mps 706 mmHg 75%
    04:00 +8°C° 0.1 mm 2 mps 706 mmHg 78%
    05:00 +8°C° 0 mm 2 mps 706 mmHg 77%
    06:00 +9°C° 0 mm 2 mps 706 mmHg 76%
    07:00 +9°C° 0 mm 3 mps 706 mmHg 71%
    08:00 +11°C° 0 mm 3 mps 706 mmHg 64%
    09:00 +12°C° 0 mm 4 mps 706 mmHg 58%
    10:00 +13°C° 0 mm 4 mps 706 mmHg 52%
    11:00 +13°C° 0 mm 4 mps 706 mmHg 55%
    12:00 +13°C° 0 mm 5 mps 705 mmHg 58%
    13:00 +13°C° 0 mm 5 mps 705 mmHg 60%
    14:00 +13°C° 0.1 mm 4 mps 704 mmHg 66%
    15:00 +12°C° 0.1 mm 4 mps 703 mmHg 72%
    16:00 +11°C° 0.1 mm 4 mps 702 mmHg 78%
    17:00 +11°C° 0 mm 4 mps 701 mmHg 78%
    18:00 +11°C° 0 mm 4 mps 700 mmHg 79%
    19:00 +10°C° 0 mm 4 mps 699 mmHg 79%
    20:00 +10°C° 0.1 mm 5 mps 698 mmHg 78%
    21:00 +12°C° 0.1 mm 5 mps 697 mmHg 76%
    22:00 +13°C° 0.1 mm 6 mps 696 mmHg 75%
    23:00 +13°C° 2.6 mm 6 mps 696 mmHg 80%

    Tomorrow, 24 September, Monday

    Time Temperature Precipitation Wind Pressure Humidity
    00:00 +13°C° 2.6 mm 6 mps 696 mmHg 85%
    01:00 +13°C° 2.6 mm 6 mps 696 mmHg 91%
    02:00 +10°C° 1.2 mm 7 mps 697 mmHg 90%
    03:00 +9°C° 1.2 mm 8 mps 698 mmHg 89%
    04:00 +6°C° 1.2 mm 8 mps 699 mmHg 89%
    05:00 +5°C° 0.2 mm 7 mps 700 mmHg 89%
    06:00 +5°C° 0.2 mm 6 mps 702 mmHg 89%
    07:00 +5°C° 0.2 mm 5 mps 703 mmHg 89%
    08:00 +4°C° 0.3 mm 6 mps 704 mmHg 87%
    09:00 +4°C° 0.3 mm 6 mps 705 mmHg 85%
    10:00 +4°C° 0.3 mm 7 mps 706 mmHg 82%
    11:00 +5°C° 0.2 mm 7 mps 706 mmHg 77%
    12:00 +6°C° 0.2 mm 7 mps 707 mmHg 72%
    13:00 +6°C° 0.2 mm 7 mps 708 mmHg 68%
    14:00 +6°C° 0.3 mm 7 mps 708 mmHg 68%
    15:00 +6°C° 0.3 mm 7 mps 708 mmHg 68%
    16:00 +5°C° 0.3 mm 7 mps 708 mmHg 68%
    17:00 +4°C° 0.1 mm 6 mps 708 mmHg 72%
    18:00 +3°C° 0.1 mm 5 mps 708 mmHg 75%
    19:00 +3°C° 0.1 mm 4 mps 709 mmHg 78%
    20:00 +3°C° 0.1 mm 4 mps 709 mmHg 78%
    21:00 +1°C° 0.1 mm 4 mps 709 mmHg 79%
    22:00 +1°C° 0.1 mm 4 mps 710 mmHg 79%
    23:00 +1°C° 0.3 mm 4 mps 710 mmHg 82%

    Day after tomorrow, 25 September, Tuesday

    Time Temperature Precipitation Wind Pressure Humidity
    00:00 +1°C° 0.3 mm 4 mps 711 mmHg 85%
    01:00 +1°C° 0.3 mm 4 mps 711 mmHg 87%
    02:00 +1°C° 0.5 mm 4 mps 711 mmHg 89%
    03:00 +2°C° 0.5 mm 3 mps 712 mmHg 90%
    04:00 +2°C° 0.5 mm 3 mps 712 mmHg 91%
    05:00 +2°C° 0.1 mm 3 mps 713 mmHg 90%
    06:00 +2°C° 0.1 mm 3 mps 713 mmHg 89%
    07:00 +2°C° 0.1 mm 3 mps 714 mmHg 88%
    08:00 +3°C° 0.1 mm 3 mps 714 mmHg 84%
    09:00 +4°C° 0.1 mm 3 mps 715 mmHg 80%
    10:00 +5°C° 0.1 mm 3 mps 715 mmHg 77%
    11:00 +5°C° 0.2 mm 3 mps 715 mmHg 74%
    12:00 +7°C° 0.2 mm 3 mps 716 mmHg 71%
    13:00 +7°C° 0.2 mm 3 mps 716 mmHg 68%
    14:00 +7°C° 0.2 mm 3 mps 716 mmHg 69%
    15:00 +7°C° 0.2 mm 3 mps 716 mmHg 69%
    16:00 +7°C° 0.2 mm 3 mps 716 mmHg 70%
    17:00 +5°C° 0 mm 3 mps 716 mmHg 75%
    18:00 +4°C° 0 mm 2 mps 716 mmHg 81%
    19:00 +4°C° 0 mm 1 mps 716 mmHg 86%
    20:00 +4°C° 0 mm 1 mps 717 mmHg 87%
    21:00 +3°C° 0 mm 1 mps 717 mmHg 88%
    22:00 +3°C° 0 mm 1 mps 717 mmHg 89%
    23:00 +3°C° 0 mm 1 mps 717 mmHg 89%

    26 September, Wednesday

    Time Temperature Precipitation Wind Pressure Humidity
    00:00 +3°C° 0 mm 1 mps 717 mmHg 90%
    01:00 +2°C° 0 mm 1 mps 718 mmHg 90%
    02:00 +2°C° 0 mm 1 mps 718 mmHg 90%
    03:00 +2°C° 0 mm 1 mps 717 mmHg 91%
    04:00 +2°C° 0 mm 1 mps 717 mmHg 91%
    05:00 +2°C° 0 mm 1 mps 718 mmHg 87%
    06:00 +3°C° 0 mm 1 mps 718 mmHg 84%
    07:00 +4°C° 0 mm 1 mps 718 mmHg 81%
    08:00 +6°C° 0 mm 1 mps 718 mmHg 72%
    09:00 +7°C° 0 mm 2 mps 718 mmHg 62%
    10:00 +9°C° 0 mm 2 mps 718 mmHg 53%
    11:00 +10°C° 0 mm 2 mps 718 mmHg 50%
    12:00 +11°C° 0 mm 3 mps 718 mmHg 48%
    13:00 +12°C° 0 mm 3 mps 717 mmHg 45%
    14:00 +11°C° 0 mm 3 mps 717 mmHg 49%
    15:00 +11°C° 0 mm 3 mps 716 mmHg 52%
    16:00 +11°C° 0 mm 3 mps 715 mmHg 55%
    17:00 +9°C° 0 mm 3 mps 715 mmHg 61%
    18:00 +7°C° 0 mm 2 mps 715 mmHg 68%
    19:00 +5°C° 0 mm 2 mps 714 mmHg 74%
    20:00 +6°C° 0 mm 2 mps 714 mmHg 72%
    21:00 +6°C° 0 mm 2 mps 714 mmHg 70%
    22:00 +5°C° 0 mm 3 mps 714 mmHg 67%
    23:00 +6°C° 0 mm 2 mps 714 mmHg 67%

    27 September, Thursday

    Time Temperature Precipitation Wind Pressure Humidity
    00:00 +5°C° 0 mm 2 mps 714 mmHg 67%
    01:00 +5°C° 0 mm 2 mps 714 mmHg 67%
    02:00 +5°C° 0 mm 2 mps 713 mmHg 66%
    03:00 +5°C° 0 mm 2 mps 713 mmHg 66%
    04:00 +5°C° 0 mm 2 mps 713 mmHg 65%
    05:00 +6°C° 0 mm 2 mps 713 mmHg 63%
    06:00 +7°C° 0 mm 2 mps 713 mmHg 60%
    07:00 +7°C° 0 mm 2 mps 713 mmHg 58%
    08:00 +10°C° 0 mm 3 mps 713 mmHg 54%
    09:00 +12°C° 0 mm 3 mps 713 mmHg 50%
    10:00 +14°C° 0 mm 3 mps 713 mmHg 46%
    11:00 +16°C° 0 mm 3 mps 713 mmHg 48%
    12:00 +18°C° 0 mm 3 mps 713 mmHg 50%
    13:00 +19°C° 0 mm 3 mps 713 mmHg 52%
    14:00 +18°C° 0 mm 2 mps 713 mmHg 56%
    15:00 +18°C° 0 mm 2 mps 712 mmHg 59%
    16:00 +18°C° 0 mm 2 mps 712 mmHg 63%
    17:00 +16°C° 0 mm 2 mps 712 mmHg 69%
    18:00 +14°C° 0 mm 2 mps 711 mmHg 75%
    19:00 +12°C° 0 mm 1 mps 711 mmHg 81%
    20:00 +11°C° 0 mm 1 mps 711 mmHg 81%
    21:00 +11°C° 0 mm 1 mps 711 mmHg 82%
    22:00 +11°C° 0 mm 1 mps 710 mmHg 82%
    23:00 +10°C° 0 mm 1 mps 710 mmHg 83%

    28 September, Friday

    Time Temperature Precipitation Wind Pressure Humidity
    00:00 +9°C° 0 mm 2 mps 710 mmHg 83%
    01:00 +9°C° 0 mm 2 mps 709 mmHg 84%
    02:00 +9°C° 0 mm 2 mps 709 mmHg 84%
    03:00 +9°C° 0 mm 2 mps 709 mmHg 84%
    04:00 +9°C° 0 mm 2 mps 708 mmHg 85%
    05:00 +10°C° 0 mm 2 mps 708 mmHg 82%
    06:00 +10°C° 0 mm 2 mps 708 mmHg 80%
    07:00 +12°C° 0 mm 2 mps 708 mmHg 78%
    08:00 +14°C° 0 mm 2 mps 708 mmHg 69%
    09:00 +17°C° 0 mm 2 mps 709 mmHg 61%
    10:00 +19°C° 0 mm 3 mps 709 mmHg 52%
    11:00 +20°C° 0 mm 3 mps 709 mmHg 49%
    12:00 +20°C° 0 mm 3 mps 708 mmHg 47%
    13:00 +21°C° 0 mm 3 mps 708 mmHg 44%
    14:00 +20°C° 0 mm 2 mps 708 mmHg 48%
    15:00 +19°C° 0 mm 2 mps 707 mmHg 51%
    16:00 +20°C° 0 mm 1 mps 707 mmHg 55%
    17:00 +18°C° 0 mm 1 mps 707 mmHg 61%
    18:00 +13°C° 0 mm 0 mps 707 mmHg 67%
    19:00 +11°C° 0 mm 0 mps 707 mmHg 74%
    20:00 +11°C° 0 mm 0 mps 707 mmHg 76%
    21:00 +10°C° 0 mm 0 mps 707 mmHg 78%
    22:00 +10°C° 0 mm 0 mps 707 mmHg 80%
    23:00 +9°C° 0 mm 0 mps 707 mmHg 82%
    Show more